www.pogodaiklimat.ru

Погода и климат >> Архив погоды >> Россия >> Свердловская область >> Невьянск


ПОГОДА в Невьянске

  • Прогноз погоды в Невьянске
  • Монитор погоды в Невьянске

АРХИВ ПОГОДЫ в Невьянске

Время (UTC), дата Ветер
(напр.,м/с)
 
Видим.   Явления Облачность Т
(С)
Тd
(С)
f
(%)
Тe
(С)
Тes
(С)
Комфортность P
(гПа)
Po
(гПа)
Тmin
(С)
Tmax
(С)
R
(мм)
R24
(мм)
S
(см)
00 14.03 ЮЗ 2 4000 м ясно -4.2 -8.0 75 -8 -8 1013.5 980.9
03 14.03 Ю 1 50 км 8/0
[Ac trans]
-5.3 -8.6 78 -8 -7 1012.9 980.1 -5.3 33
06 14.03 С 1 50 км 9/0
[Ac trans]
-3.0 -8.6 65 -5 -3 1011.6 979.1
09 14.03 С 3 50 км 9/4 600 м
[Sc Ac trans]
-2.5 -10.4 55 -7 -6 1009.1 976.8
12 14.03 С 3 9000 м слаб. ливневой снег 9/5 600 м
[Cb cap Ac trans]
-2.9 -8.2 67 -8 -7 1006.8 974.5
15 14.03 С 4 1000 м слаб. ливневой снег 9/9 630 м
[Cb cap]
-4.2 -5.7 89 -11 -11 1004.3 972.0 -2.2 1
18 14.03 СЗ 6
{11}
1000 м слаб. ливневой снег 9/9 630 м
[Cb cap]
-4.2 -5.6 90 -12 -12 1002.7 970.5
21 14.03 СЗ 8-13
{14}
1000 м слаб. ливневой снег {метель} 9/9 630 м
[Cb cap]
-4.2 -6.3 85 -13 -13 1003.0 970.7
00 15.03 СЗ 8-14
{16}
1000 м слаб. ливневой снег {метель} 9/9 630 м
[Cb cap]
-5.6 -7.8 84 -15 -15 1004.9 972.4
03 15.03 СЗ 9-13
{14}
4100 м слаб. ливневой снег {метель} 9/9 660 м
[Cb cap]
-7.1 -9.4 84 -17 -17 1006.8 974.0 -7.1 2 36
06 15.03 СЗ 10-17
{18}
50 км позёмок {ливн. осадки} 9/8 600 м
[Cb cap Ac trans]
-6.4 -10.6 72 -16 -16 1008.2 975.4 -7.3
09 15.03 З 11-17
{18}
50 км позёмок 8/4 600 м
[Cb cap Ac trans]
-4.9 -10.9 63 -15 -15 1009.8 977.2
12 15.03 СЗ 11-16
{17}
50 км позёмок 8/3 600 м
[Cb cap Ac trans Ci fib]
-3.5 -13.3 47 -12 -12 1011.9 979.4
15 15.03 СЗ 6-10
{17}
4000 м {метель} 6/0
[Ac trans]
-3.9 -13.6 47 -11 -11 1014.7 982.0 -2.6 0.0
18 15.03 СЗ 6
{13}
4000 м {метель} 3/0
[Ci fib]
-6.5 -15.2 50 -14 -14 1016.9 983.9
21 15.03 З 5 4000 м 3/0
[Ci fib]
-8.1 -15.1 57 -15 -15 1018.4 985.1
00 16.03 СЗ 4 4000 м ясно -9.1 -15.3 61 -16 -16 1019.8 986.4
03 16.03 СЗ 4 50 км ясно -9.0 -14.8 63 -16 -16 1021.8 988.3 -9.4 35
06 16.03 СЗ 6-10
{10}
50 км 1/0
[Ci fib]
-5.5 -14.9 47 -13 -11 1022.8 989.7
09 16.03 СЗ 4
{10}
50 км 1/0
[Ci fib]
-1.9 -14.2 38 -7 -3 1022.3 989.7
12 16.03 СЗ 5 50 км 4/0
[Ci fib]
+0.2 -14.4 32 -5 -4 1021.8 989.4
15 16.03 З 3 4000 м 1/0
[Ci fib]
-1.7 -13.6 40 -6 -6 1023.1 990.4 +0.4
18 16.03 Ю 1 4000 м ясно -4.1 -13.0 50 -6 -6 1024.4 991.4
21 16.03 Ю 2 4000 м ясно -7.8 -13.1 66 -12 -12 1025.7 992.2
00 17.03 Ю 1 4000 м ясно -10.7 -13.6 79 -13 -13 1027.1 993.2
03 17.03 Ю 1 50 км 1/0
[Ci fib]
-11.4 -13.7 83 -14 -13 1027.9 994.0 -12.4 35
06 17.03 Ю 1 50 км 3/0
[Ac trans Ci fib]
-4.2 -11.3 58 -6 -2 1027.7 994.6
09 17.03 ЮВ 4 50 км 3/0
[Ac trans]
+2.0 -11.8 35 -2 +1 1026.3 994.0
12 17.03 ЮВ 4 50 км 3/0
[Ac trans]
+3.3 -12.2 31 -0 +1 1025.9 993.7
15 17.03 ЮВ 4 4000 м 8/4 600 м
[Sc Ac trans]
+0.5 -11.9 39 -4 -4 1027.2 994.7 +3.4
18 17.03 ЮВ 3 4000 м 9/6 600 м
[Sc Ac trans]
-0.6 -10.2 48 -5 -5 1027.7 995.0
21 17.03 ЮВ 3 4000 м 3/0
[Ac trans]
-2.4 -10.3 55 -7 -7 1028.1 995.2
00 18.03 Ю 3 4000 м 6/0
[Ac trans]
-3.7 -10.3 60 -9 -9 1029.0 995.9
03 18.03 ЮВ 2 50 км 8/0
[Ac trans]
-3.6 -10.2 60 -7 -7 1029.6 996.6 -3.9 32
06 18.03 Ю 1 50 км 9/0
[Ac trans Ci fib]
-0.2 -10.7 45 -1 +2 1029.6 996.9
09 18.03 Ю 1 50 км 9/0
[Ac trans]
+4.9 -12.8 26 +5 +8 1029.4 997.3
12 18.03 ЮВ 2 50 км 8/0
[Ac trans]
+5.2 -12.8 26 +4 +5 1029.0 997.0
15 18.03 ЮВ 4 4000 м 8/0
[Ac trans Ci fib]
+2.6 -14.0 28 -1 -1 1029.2 996.9 +7.3
18 18.03 ЮВ 4 4000 м 8/0
[Ac trans]
-0.7 -14.3 35 -5 -5 1029.7 997.0
21 18.03 Ю 4 4000 м 6/0
[Ac trans]
-2.6 -13.3 44 -8 -8 1029.9 996.9
00 19.03 ЮВ 3 4000 м 8/0
[Ac trans]
-3.7 -13.2 48 -8 -8 1029.7 996.6
03 19.03 Ю 3 50 км 3/0
[Ac trans]
-4.5 -12.8 52 -9 -9 1030.1 996.9 -4.7 32
06 19.03 Ю 2 50 км 3/0
[Ci fib]
-1.5 -12.0 45 -5 0 1029.4 996.6
09 19.03 В 2 50 км 1/0
[Ci fib]
+4.6 -11.8 29 +3 +9 1028.1 996.0
12 19.03 ЮВ 3 50 км ясно +5.6 -11.9 27 +3 +5 1027.2 995.3
15 19.03 ЮВ 4 4000 м ясно +1.9 -11.2 37 -2 -2 1027.8 995.4 +6.4
18 19.03 ЮВ 4 4000 м ясно -1.9 -10.1 53 -7 -7 1027.9 995.1
21 19.03 Ю 3 4000 м ясно -4.2 -10.6 61 -9 -9 1027.5 994.4
00 20.03 Ю 3 4000 м 8/0
[Ci fib]
-6.1 -11.1 68 -11 -11 1026.7 993.4
03 20.03 ЮВ 3 50 км 3/0
[Ci fib]
-7.1 -11.4 71 -13 -12 1025.8 992.5 -7.3 31
06 20.03 Ю 3 50 км 6/0
[Ci fib]
+0.9 -10.7 42 -3 +1 1024.1 991.7
09 20.03 Ю 3 50 км 6/0
[Ci fib]
+7.8 -12.8 22 +6 +11 1021.7 990.2
12 20.03 ЮЗ 4 50 км 8/0
[Ci fib]
+8.9 -13.5 19 +7 +8 1020.2 988.8
15 20.03 Ю 4 4000 м 4/0
[Ci fib]
+5.7 -15.0 21 +3 +3 1020.0 988.3 +8.9
18 20.03 ЮЗ 4 4000 м 3/0
[Ci fib]
+3.5 -10.3 36 -0 -0 1019.7 987.8

 

Местоположение метеостанции Невьянск (Свердловская область, Россия): широта 57.50 долгота 60.25 высота над уровнем моря 257 м.

В архиве по умолчанию представлена погода в Невьянске за последнюю неделю. Архивные данные за месяц целиком и за предыдущие месяцы, начиная с января 2011 года, Вы можете получить, выбрав интересующий диапазон дат из раскрывающегося списка и нажав кнопку "Ввод!".


*Определитесь, кто Вы:
робот инопланетянин человек

Внимание! Время в таблицах - всемирное. Для получения местного времени необходимо прибавить поправку, которая равна 5 ч.

Смотрите также архив погоды в соседних городах и на ближайших метеорологических станциях:

Погода в Нижнем Тагиле (Свердловская область, Россия) (44 км)
Погода в Висиме (Свердловская область, Россия) (47 км)
Погода в Ревде (Свердловская область, Россия) (71 км)
Погода в Екатеринбурге (Свердловская область, Россия) (78 км)
Погода в Екатеринбурге (Бот.сад) (Свердловская область, Россия) (82 км)
Погода в Алапаевске (Свердловская область, Россия) (96 км)
Погода в Кушве (Свердловская область, Россия) (96 км)
Погода в Верхнем Дуброво (Свердловская область, Россия) (99 км)
Погода в Бисерти (Свердловская область, Россия) (99 км)
Погода в Мариинске (Свердловская область, Россия) (101 км)

Пояснения к столбцам:

Ветер - указаны скорость ветра в м/с - средняя за 10 мин, порывы в срок и между сроками (в фигурных скобках) и направление, откуда дует ветер: С - северный, СВ - северо-восточный, В - восточный, ЮВ - юго-восточный, Ю - южный, ЮЗ - юго-западный, З - западный, СЗ - северо-западный.
Видимость - горизонтальная дальность видимости в метрах или километрах. При видимости от 1 до 10 км при отсутствии осадков обычно наблюдается дымка, при ухудшении видимости до 1 км и менее - туман. В сухую погоду видимость может ухудшаться дымом, пылью или мглою.
Явления - указаны атмосферные явления, наблюдавшиеся в срок или в последний час перед сроком; фигурными скобками обозначены явления, наблюдавшиеся между сроками (за 1-3 часа до срока); квадратными скобками обозначены град или гололедные отложения с указанием их диаметра в мм.
Облачность - указаны через наклонную черту общая и нижняя облачность в баллах и высота нижней границы облаков в метрах; квадратными скобками обозначены формы облаков: Ci - перистые, Cs - перисто-слоистые, Cc - перисто-кучевые, Ac - высококучевые, As - высокослоистые, Sc - слоисто-кучевые, Ns - слоисто-дождевые, Cu - кучевые, Cb - кучево-дождевые. Подробнее классификацию облаков см. в Атласе облаков (PDF).
T - Температура воздуха - температура, измеренная на высоте 2 м над землей.
Td - Температура точки росы - температура, при понижении до которой содержащийся в воздухе водяной пар достигнет насыщения.
f - Относительная влажность воздуха - влажноcть воздуха, измеренная на высоте 2 м над землей.
Te - Эффективная температура - температура, которую ощущает одетый по сезону человек в тени. Характеристика душности погоды. При расчете учитывается влияние влажности воздуха и скорости ветра на теплоощущения человека.
Tes - Эффективная температура на солнце - температура, которую ощущает человек, с поправкой на солнечный нагрев. Характеристика знойности погоды. Зависит от высоты солнца над горизонтом, облачности и скорости ветра. Ночью, в пасмурную погоду, а также при ветре 12 м/с и более поправка равна нулю.
P - Атмосферное давление - приведенное к уровню моря атмосферное давление.
Po - Атмосферное давление - измеренное на уровне метеостанции атмосферное давление.
Tmin - Минимальная температура - минимум температуры воздуха на высоте 2 м над землей.
Tmax - Максимальная температура - максимум температуры воздуха на высоте 2 м над землей.
R - Количество осадков - Количество выпавших осадков за период времени, мм. При наведении курсора мыши на число - период времени, за который выпало указанное количество осадков.
R24 - Количество осадков - Количество выпавших осадков за 24 часа, мм.
S - Снежный покров - Высота снежного покрова, см. При наведении курсора мыши на число - состояние снежного покрова и степень покрытия местности в баллах.